User: anonymous   Login
Location: Theydon Bois
(51.6750°N, 0.1050°E)
Time: 01:33:07
(UTC+00:00)
Language:

Cosmos 2082 Rocket - Orbit

View from above orbital plane
View from above orbital plane
View from above satellite
View from above satellite

Ground track
Ground track

The orbit data is extracted from the following two-line orbital elements,

1 20625U 90046B   18050.90994001 -.00000121 +00000-0 -38208-4 0  9991
2 20625 071.0021 349.2141 0011773 090.8056 269.4416 14.14629971432611
Epoch (UTC): 19 February 2018 21:50:18
Eccentricity: 0.0011773
inclination: 71.0021°
perigee height: 835 km
apogee height: 852 km
right ascension of ascending node: 349.2141°
argument of perigee: 90.8056°
revolutions per day: 14.14629971
mean anomaly at epoch: 269.4416°
orbit number at epoch: 43261

The dashed part of the orbit path shows where the satellite is in the earth's shadow,  

DLR